When you browse on this site, cookies collect data to enhance your experience and personalize the content and advertising you see.
Visit our Privacy Policy to learn more. By continuing to use the site, you agree to this use of cookies and data.
  • In Hungary
  • List of Countries
  • For 7 days
  • Water Temperature
  • Satellite Maps
  • Weather Map
  • News
  • Weather Widgets
  • user-avatar
    Login

    Hourly Weather La Vergne

    Today, 19 February, Tuesday

    Time Temperature Precipitation Wind Pressure Humidity
    00:00 -1°C° 0 mm 3 mps 758 mmHg 72%
    01:00 -1°C° 0 mm 3 mps 757 mmHg 72%
    02:00 -2°C° 0 mm 3 mps 757 mmHg 72%
    03:00 -2°C° 0 mm 3 mps 757 mmHg 72%
    04:00 -2°C° 0 mm 3 mps 757 mmHg 72%
    05:00 -2°C° 0 mm 3 mps 757 mmHg 72%
    06:00 -2°C° 0 mm 3 mps 757 mmHg 71%
    07:00 -1°C° 0 mm 3 mps 757 mmHg 68%
    08:00 0°C° 0 mm 3 mps 757 mmHg 65%
    09:00 +1°C° 0 mm 3 mps 757 mmHg 62%
    10:00 +1°C° 0.2 mm 3 mps 757 mmHg 64%
    11:00 +2°C° 0.2 mm 2 mps 756 mmHg 65%
    12:00 +3°C° 0.2 mm 2 mps 756 mmHg 67%
    13:00 +3°C° 0.7 mm 2 mps 755 mmHg 72%
    14:00 +3°C° 0.7 mm 2 mps 754 mmHg 77%
    15:00 +3°C° 0.7 mm 2 mps 753 mmHg 82%
    16:00 +2°C° 3.1 mm 3 mps 752 mmHg 85%
    17:00 +1°C° 3.1 mm 4 mps 752 mmHg 89%
    18:00 +1°C° 3.1 mm 5 mps 751 mmHg 93%
    19:00 +3°C° 2.3 mm 4 mps 751 mmHg 93%
    20:00 +3°C° 2.3 mm 4 mps 750 mmHg 94%
    21:00 +4°C° 2.3 mm 3 mps 750 mmHg 95%
    22:00 +5°C° 1.4 mm 3 mps 749 mmHg 94%
    23:00 +5°C° 1.4 mm 4 mps 748 mmHg 93%

    Tomorrow, 20 February, Wednesday

    Time Temperature Precipitation Wind Pressure Humidity
    00:00 +6°C° 1.4 mm 4 mps 747 mmHg 93%
    01:00 +6°C° 1.4 mm 4 mps 746 mmHg 93%
    02:00 +7°C° 1.4 mm 4 mps 745 mmHg 94%
    03:00 +8°C° 1.4 mm 5 mps 744 mmHg 94%
    04:00 +8°C° 0.5 mm 5 mps 744 mmHg 93%
    05:00 +9°C° 0.5 mm 6 mps 744 mmHg 91%
    06:00 +10°C° 0.5 mm 7 mps 743 mmHg 90%
    07:00 +11°C° 1.7 mm 7 mps 743 mmHg 90%
    08:00 +11°C° 1.7 mm 7 mps 743 mmHg 90%
    09:00 +12°C° 1.7 mm 8 mps 743 mmHg 90%
    10:00 +12°C° 3.9 mm 7 mps 742 mmHg 90%
    11:00 +14°C° 3.9 mm 7 mps 742 mmHg 90%
    12:00 +14°C° 3.9 mm 7 mps 741 mmHg 91%
    13:00 +15°C° 1 mm 7 mps 741 mmHg 90%
    14:00 +16°C° 1 mm 7 mps 740 mmHg 89%
    15:00 +16°C° 1 mm 8 mps 740 mmHg 89%
    16:00 +16°C° 1.8 mm 7 mps 740 mmHg 91%
    17:00 +16°C° 1.8 mm 6 mps 741 mmHg 93%
    18:00 +16°C° 1.8 mm 5 mps 742 mmHg 94%
    19:00 +14°C° 0.5 mm 4 mps 742 mmHg 93%
    20:00 +13°C° 0.5 mm 4 mps 743 mmHg 92%
    21:00 +11°C° 0.5 mm 3 mps 744 mmHg 91%
    22:00 +10°C° 0 mm 3 mps 744 mmHg 91%
    23:00 +9°C° 0 mm 2 mps 745 mmHg 90%

    Day after tomorrow, 21 February, Thursday

    Time Temperature Precipitation Wind Pressure Humidity
    00:00 +8°C° 0 mm 2 mps 745 mmHg 89%
    01:00 +8°C° 0 mm 1 mps 746 mmHg 90%
    02:00 +8°C° 0 mm 1 mps 746 mmHg 90%
    03:00 +7°C° 0 mm 1 mps 747 mmHg 90%
    04:00 +6°C° 0 mm 1 mps 747 mmHg 90%
    05:00 +6°C° 0 mm 1 mps 748 mmHg 91%
    06:00 +6°C° 0 mm 1 mps 748 mmHg 91%
    07:00 +7°C° 0 mm 1 mps 749 mmHg 86%
    08:00 +8°C° 0 mm 1 mps 749 mmHg 82%
    09:00 +8°C° 0 mm 2 mps 750 mmHg 77%
    10:00 +9°C° 0 mm 2 mps 750 mmHg 70%
    11:00 +12°C° 0 mm 2 mps 750 mmHg 63%
    12:00 +13°C° 0 mm 2 mps 750 mmHg 56%
    13:00 +13°C° 0 mm 2 mps 749 mmHg 54%
    14:00 +14°C° 0 mm 2 mps 749 mmHg 53%
    15:00 +14°C° 0 mm 2 mps 749 mmHg 51%
    16:00 +13°C° 0 mm 2 mps 749 mmHg 56%
    17:00 +12°C° 0 mm 2 mps 750 mmHg 61%
    18:00 +10°C° 0 mm 2 mps 750 mmHg 66%
    19:00 +10°C° 0 mm 2 mps 750 mmHg 67%
    20:00 +9°C° 0 mm 3 mps 751 mmHg 69%
    21:00 +9°C° 0 mm 3 mps 751 mmHg 71%
    22:00 +8°C° 0.2 mm 3 mps 751 mmHg 75%
    23:00 +8°C° 0.2 mm 2 mps 751 mmHg 79%

    22 February, Friday

    Time Temperature Precipitation Wind Pressure Humidity
    00:00 +8°C° 0.2 mm 2 mps 751 mmHg 82%
    01:00 +8°C° 0.3 mm 2 mps 751 mmHg 84%
    02:00 +8°C° 0.3 mm 2 mps 750 mmHg 85%
    03:00 +8°C° 0.3 mm 2 mps 750 mmHg 87%
    04:00 +8°C° 1.2 mm 3 mps 750 mmHg 88%
    05:00 +7°C° 1.2 mm 3 mps 751 mmHg 90%
    06:00 +6°C° 1.2 mm 4 mps 751 mmHg 92%
    07:00 +7°C° 1.7 mm 3 mps 751 mmHg 92%
    08:00 +7°C° 1.7 mm 3 mps 751 mmHg 92%
    09:00 +8°C° 1.7 mm 2 mps 752 mmHg 93%
    10:00 +8°C° 3 mm 2 mps 751 mmHg 93%
    11:00 +8°C° 3 mm 3 mps 751 mmHg 93%
    12:00 +8°C° 3 mm 3 mps 751 mmHg 93%
    13:00 +8°C° 2 mm 2 mps 751 mmHg 93%
    14:00 +8°C° 2 mm 2 mps 750 mmHg 94%
    15:00 +9°C° 2 mm 2 mps 749 mmHg 94%
    16:00 +9°C° 2.1 mm 2 mps 749 mmHg 94%
    17:00 +9°C° 2.1 mm 2 mps 749 mmHg 95%
    18:00 +9°C° 2.1 mm 2 mps 749 mmHg 96%
    19:00 +9°C° 1.1 mm 2 mps 749 mmHg 96%
    20:00 +9°C° 1.1 mm 2 mps 749 mmHg 96%
    21:00 +9°C° 1.1 mm 2 mps 749 mmHg 96%
    22:00 +9°C° 3.4 mm 2 mps 748 mmHg 96%
    23:00 +9°C° 3.4 mm 2 mps 748 mmHg 97%

    23 February, Saturday

    Time Temperature Precipitation Wind Pressure Humidity
    00:00 +9°C° 3.4 mm 2 mps 747 mmHg 97%
    01:00 +10°C° 3.5 mm 3 mps 747 mmHg 97%
    02:00 +11°C° 3.5 mm 3 mps 747 mmHg 97%
    03:00 +12°C° 3.5 mm 3 mps 746 mmHg 97%
    04:00 +13°C° 1.7 mm 3 mps 746 mmHg 96%
    05:00 +14°C° 1.7 mm 4 mps 746 mmHg 96%
    06:00 +14°C° 1.7 mm 4 mps 746 mmHg 95%
    07:00 +15°C° 1.6 mm 4 mps 746 mmHg 95%
    08:00 +15°C° 1.6 mm 5 mps 746 mmHg 94%
    09:00 +16°C° 1.6 mm 5 mps 746 mmHg 93%
    10:00 +16°C° 1.4 mm 5 mps 745 mmHg 92%
    11:00 +17°C° 1.4 mm 6 mps 745 mmHg 91%
    12:00 +17°C° 1.4 mm 6 mps 744 mmHg 91%
    13:00 +17°C° 0.5 mm 6 mps 743 mmHg 90%
    14:00 +19°C° 0.5 mm 6 mps 743 mmHg 89%
    15:00 +19°C° 0.5 mm 6 mps 742 mmHg 89%
    16:00 +19°C° 0.1 mm 6 mps 741 mmHg 89%
    17:00 +19°C° 0.1 mm 6 mps 741 mmHg 90%
    18:00 +20°C° 0.1 mm 6 mps 740 mmHg 90%
    19:00 +20°C° 1.2 mm 6 mps 740 mmHg 90%
    20:00 +20°C° 1.2 mm 7 mps 740 mmHg 89%
    21:00 +20°C° 1.2 mm 7 mps 739 mmHg 88%
    22:00 +20°C° 1.3 mm 8 mps 739 mmHg 87%
    23:00 +20°C° 1.3 mm 8 mps 739 mmHg 87%

    24 February, Sunday

    Time Temperature Precipitation Wind Pressure Humidity
    00:00 +20°C° 1.3 mm 8 mps 738 mmHg 86%
    01:00 +17°C° 0.2 mm 7 mps 739 mmHg 78%
    02:00 +16°C° 0.2 mm 6 mps 739 mmHg 71%
    03:00 +14°C° 0.2 mm 6 mps 739 mmHg 63%
    04:00 +13°C° 0 mm 5 mps 740 mmHg 66%
    05:00 +10°C° 0 mm 5 mps 741 mmHg 68%
    06:00 +9°C° 0 mm 5 mps 741 mmHg 70%
    07:00 +9°C° 0 mm 5 mps 742 mmHg 69%
    08:00 +9°C° 0 mm 5 mps 743 mmHg 68%
    09:00 +9°C° 0 mm 6 mps 744 mmHg 67%
    10:00 +10°C° 0 mm 6 mps 744 mmHg 62%
    11:00 +11°C° 0 mm 6 mps 744 mmHg 58%
    12:00 +13°C° 0 mm 6 mps 744 mmHg 53%
    13:00 +13°C° 0 mm 6 mps 744 mmHg 52%
    14:00 +13°C° 0 mm 5 mps 744 mmHg 50%
    15:00 +13°C° 0 mm 5 mps 744 mmHg 49%
    16:00 +12°C° 0 mm 5 mps 745 mmHg 53%
    17:00 +11°C° 0 mm 4 mps 745 mmHg 57%
    18:00 +8°C° 0 mm 4 mps 746 mmHg 60%
    19:00 +9°C° 0 mm 3 mps 747 mmHg 61%
    20:00 +8°C° 0 mm 3 mps 747 mmHg 63%
    21:00 +7°C° 0 mm 3 mps 748 mmHg 64%
    22:00 +7°C° 0 mm 3 mps 748 mmHg 65%
    23:00 +5°C° 0 mm 3 mps 749 mmHg 66%
    Show more